Regional Weather Roundup
Issued by NWS

Home | Current Version | Previous Version | Text Only | Print | Product List | Glossary On
Versions: 1 2 3 4 5 6 7 8 9 10 11 12 13 14 15 16 17 18 19 20 21 22 23 24 25 26 27 28 29 30 31 32 33 34 35 36 37 38 39 40 41 42 43 44 45 46 47 48 49 50
000
ASUS44 KMEG 201110
RWRTN
TENNESSEE HOURLY STATE WEATHER ROUNDUP
NATIONAL WEATHER SERVICE MEMPHIS TN
600 AM CDT WED AUG 20 2014

TNZ002-004-019-021-049-052-054-088>092-201200-
WEST TENNESSEE

CITY           SKY/WX    TMP DP  RH WIND       PRES   REMARKS
MEMPHIS INTL   PTCLDY    77  73  87 SW5       29.95R
NWS MEMPHIS      N/A     77 N/A N/A MISG        N/A
JACKSON        CLEAR     77  75  93 SW7       29.94R
DYERSBURG      CLEAR     79  66  65 SW6       29.93R
UNION CITY     CLEAR     75  75 100 SW5       29.90R
PARIS          CLEAR     72  72 100 SW6       29.93R
HUNTINGDON     CLEAR     75  74  97 SW5       29.93R
LEXINGTON      CLEAR     73  72  94 CALM      29.94R
SAVANNAH       CLEAR     73  73 100 CALM      29.97R
$$

TNZ008-025-027-028-033-062-065-066-201200-
NORTH MIDDLE TENNESSEE

CITY           SKY/WX    TMP DP  RH WIND       PRES   REMARKS
NASHVILLE      PTCLDY    78  74  87 W5        29.94R
CLARKSVILLE    CLEAR     74  72  93 SW5       29.92R
SMYRNA         CLEAR     73  71  93 CALM      29.95R
MURFREESBORO   PTCLDY    75  71  87 SE3       29.95R
COOKEVILLE     PTCLDY    72  72 100 S3        29.98R
GALLATIN       CLEAR     72  72 100 CALM      29.95R
CROSSVILLE     PTCLDY    70  67  90 S3        30.02R FOG
$$

TNZ061-075-076-078-094-096-097-201200-
SOUTH MIDDLE TENNESSEE

CITY           SKY/WX    TMP DP  RH WIND       PRES   REMARKS
LEWISBURG      CLEAR     77  72  84 SW5       29.96R
FAYETTEVILLE   MOCLDY    72  72 100 S3        30.00R
TULLAHOMA      PTCLDY    72  70  94 SW3       30.00R
WINCHESTER     PTCLDY    72  70  94 CALM      30.00R
MCMINNVILLE    PTCLDY    73  73 100 SW3       29.99R
COLUMBIA       CLEAR     75  75 100 SW6       29.95R
SHELBYVILLE    PTCLDY    73  72  94 S5        29.98R
$$

TNZ017-018-042-046-047-201200-
NORTHEAST TENNESSEE

CITY           SKY/WX    TMP DP  RH WIND       PRES   REMARKS
TRI CITIES     MOCLDY    67  64  90 N3        30.02R FOG
ELIZABETHTON   PTSUNNY   66  64  94 CALM      30.02R
$$

TNZ012-013-036-069-073-074-201200-
CENTRAL EAST TENNESSEE

CITY           SKY/WX    TMP DP  RH WIND       PRES   REMARKS
KNOXVILLE      PTCLDY    70  68  93 CALM      29.98R
OAK RIDGE      CLOUDY    72  71  97 SW5       30.00R FOG
GATLINBURG     PTSUNNY   66  64  94 CALM      29.99R
MORRISTOWN       N/A     68  68 100 CALM      30.01R
$$

TNZ083-085-099-201200-
SOUTHEAST TENNESSEE

CITY           SKY/WX    TMP DP  RH WIND       PRES   REMARKS
CHATTANOOGA    PTCLDY    73  69  87 CALM      29.99R
$$

SKY/WX REPORTED AS FAIR MEANS FEW OR NO CLOUDS BELOW
12 THOUSAND FEET.



USA.gov is the U.S. government's official web portal to all federal, state and local government web resources and services.